| time (UTC) | temp F | wind direction | speed MPH | gust MPH | rain 1hr in | rain 24hr in | rain mn in | humidity % | barometer mb |
| 20260904122700 | 71 | 169 | 2.0 | 3.0 | 0.01 | 0.01 | 0.01 | 78 | 1019.6 |
| 20260904121707 | 71 | 194 | 2.0 | 5.0 | 0.00 | 0.00 | 0.00 | 76 | 1019.7 |
| 20260904120702 | 71 | 169 | 4.0 | 5.0 | 0.00 | 0.00 | 0.00 | 74 | 1019.6 |
| 20260904115717 | 71 | 194 | 2.0 | 4.0 | 0.00 | 0.00 | 0.00 | 74 | 1019.6 |
| 20260904113712 | 72 | 198 | 2.0 | 3.0 | 0.00 | 0.00 | 0.00 | 73 | 1019.4 |
| 20260904112703 | 72 | 197 | 1.0 | 2.0 | 0.00 | 0.00 | 0.00 | 72 | 1019.4 |
| 20260904111659 | 72 | 199 | 1.0 | 2.0 | 0.00 | 0.00 | 0.00 | 70 | 1019.5 |
| 20260904110705 | 72 | 197 | 1.0 | 3.0 | 0.00 | 0.00 | 0.00 | 69 | 1019.4 |
| 20260904105658 | 72 | 198 | 1.0 | 2.0 | 0.00 | 0.00 | 0.00 | 69 | 1019.6 |
| 20260904103702 | 72 | 198 | 0.0 | 2.0 | 0.00 | 0.00 | 0.00 | 68 | 1019.4 |
| 20260904102701 | 73 | 196 | 2.0 | 5.0 | 0.00 | 0.00 | 0.00 | 68 | 1019.3 |
| 20260904101707 | 73 | 200 | 3.0 | 6.0 | 0.00 | 0.00 | 0.00 | 67 | 1019.4 |
| 20260904100658 | 73 | 200 | 4.0 | 9.0 | 0.00 | 0.00 | 0.00 | 65 | 1019.1 |
| 20260904095656 | 73 | 217 | 6.0 | 11.0 | 0.00 | 0.00 | 0.00 | 63 | 1019.0 |
| 20260904094656 | 74 | 194 | 5.0 | 9.0 | 0.00 | 0.00 | 0.00 | 62 | 1018.9 |
| 20260904093707 | 74 | 190 | 3.0 | 9.0 | 0.00 | 0.00 | 0.00 | 62 | 1019.0 |
| 20260904092700 | 74 | 182 | 5.0 | 8.0 | 0.00 | 0.00 | 0.00 | 62 | 1019.0 |
| 20260904090701 | 74 | 170 | 4.0 | 10.0 | 0.00 | 0.00 | 0.00 | 61 | 1019.1 |
| 20260904085706 | 74 | 188 | 5.0 | 10.0 | 0.00 | 0.00 | 0.00 | 60 | 1019.2 |
| 20260904084701 | 75 | 209 | 7.0 | 14.0 | 0.00 | 0.00 | 0.00 | 60 | 1019.4 |
| 20260904083710 | 75 | 188 | 8.0 | 13.0 | 0.00 | 0.00 | 0.00 | 58 | 1019.2 |
| 20260904081709 | 76 | 189 | 8.0 | 15.0 | 0.00 | 0.00 | 0.00 | 55 | 1019.2 |
| 20260904080724 | 76 | 190 | 8.0 | 12.0 | 0.00 | 0.00 | 0.00 | 55 | 1019.1 |
| 20260904075709 | 77 | 225 | 9.0 | 15.0 | 0.00 | 0.00 | 0.00 | 55 | 1019.2 |
| 20260904074711 | 77 | 201 | 4.0 | 13.0 | 0.00 | 0.00 | 0.00 | 56 | 1019.0 |
| 20260904071721 | 80 | 209 | 7.0 | 16.0 | 0.00 | 0.00 | 0.00 | 51 | 1018.9 |
| 20260904070704 | 80 | 173 | 10.0 | 15.0 | 0.00 | 0.00 | 0.00 | 47 | 1018.6 |
| 20260904065656 | 80 | 181 | 6.0 | 12.0 | 0.00 | 0.00 | 0.00 | 45 | 1018.2 |
| 20260904063708 | 80 | 227 | 7.0 | 11.0 | 0.00 | 0.00 | 0.00 | 43 | 1018.1 |
| 20260904062705 | 80 | 213 | 4.0 | 7.0 | 0.00 | 0.00 | 0.00 | 41 | 1017.7 |
| 20260904061702 | 80 | 190 | 2.0 | 5.0 | 0.00 | 0.00 | 0.00 | 40 | 1017.7 |
| 20260904060654 | 79 | 240 | 6.0 | 9.0 | 0.00 | 0.00 | 0.00 | 41 | 1017.5 |
| 20260904055705 | 79 | 160 | 2.0 | 3.0 | 0.00 | 0.00 | 0.00 | 40 | 1017.2 |
| 20260904054702 | 79 | 153 | 1.0 | 3.0 | 0.00 | 0.00 | 0.00 | 40 | 1017.2 |
| 20260904053702 | 79 | 154 | 2.0 | 3.0 | 0.00 | 0.00 | 0.00 | 40 | 1017.1 |
| 20260904052659 | 80 | 76 | 2.0 | 2.0 | 0.00 | 0.00 | 0.00 | 39 | 1017.2 |
| 20260904051656 | 80 | 74 | 1.0 | 4.0 | 0.00 | 0.00 | 0.00 | 38 | 1017.3 |
| 20260904050711 | 81 | 71 | 2.0 | 2.0 | 0.00 | 0.00 | 0.00 | 37 | 1017.2 |
| 20260904045704 | 82 | 74 | 1.0 | 2.0 | 0.00 | 0.00 | 0.00 | 36 | 1017.3 |
| 20260904044703 | 83 | 74 | 0.0 | 2.0 | 0.00 | 0.00 | 0.00 | 36 | 1017.2 |
| 20260904043654 | 83 | 49 | 0.0 | 1.0 | 0.00 | 0.00 | 0.00 | 36 | 1017.0 |
| 20260904041651 | 84 | 50 | 0.0 | 0.0 | 0.00 | 0.00 | 0.00 | 35 | 1017.2 |
| 20260904040702 | 84 | 49 | 0.0 | 1.0 | 0.00 | 0.00 | 0.00 | 35 | 1017.1 |
| 20260904035707 | 84 | 50 | 1.0 | 2.0 | 0.00 | 0.00 | 0.00 | 35 | 1017.2 |
| 20260904034652 | 85 | 59 | 1.0 | 3.0 | 0.00 | 0.00 | 0.00 | 34 | 1017.0 |
| 20260904032651 | 85 | 26 | 1.0 | 3.0 | 0.00 | 0.00 | 0.00 | 34 | 1016.7 |
| 20260904030703 | 86 | 32 | 0.0 | 2.0 | 0.00 | 0.00 | 0.00 | 33 | 1016.7 |
| 20260904025701 | 86 | 36 | 1.0 | 2.0 | 0.00 | 0.00 | 0.00 | 33 | 1016.5 |
| 20260904023703 | 87 | 346 | 4.0 | 8.0 | 0.00 | 0.00 | 0.00 | 32 | 1016.3 |
| 20260904021703 | 88 | 295 | 3.0 | 7.0 | 0.00 | 0.00 | 0.00 | 30 | 1015.9 |
| 20260904020657 | 88 | 279 | 4.0 | 9.0 | 0.00 | 0.00 | 0.00 | 30 | 1015.8 |
| 20260904015653 | 89 | 264 | 4.0 | 9.0 | 0.00 | 0.00 | 0.00 | 30 | 1015.5 |
| 20260904012703 | 90 | 258 | 3.0 | 7.0 | 0.00 | 0.00 | 0.00 | 28 | 1015.5 |
| 20260904011659 | 91 | 273 | 2.0 | 4.0 | 0.00 | 0.00 | 0.00 | 27 | 1015.5 |
| 20260904010651 | 92 | 313 | 3.0 | 8.0 | 0.00 | 0.00 | 0.00 | 26 | 1015.5 |
| 20260904005703 | 92 | 275 | 2.0 | 9.0 | 0.00 | 0.00 | 0.00 | 26 | 1015.4 |
| 20260904003657 | 92 | 275 | 4.0 | 8.0 | 0.00 | 0.00 | 0.00 | 27 | 1015.4 |
| 20260904002649 | 92 | 265 | 3.0 | 8.0 | 0.00 | 0.00 | 0.00 | 27 | 1015.4 |
| 20260904001647 | 92 | 237 | 3.0 | 10.0 | 0.00 | 0.00 | 0.00 | 27 | 1015.4 |
| 20260903235700 | 93 | 246 | 6.0 | 11.0 | 0.00 | 0.00 | 0.00 | 27 | 1015.3 |
| 20260903234653 | 93 | 252 | 8.0 | 10.0 | 0.00 | 0.00 | 0.00 | 27 | 1015.2 |
| 20260903233646 | 93 | 272 | 4.0 | 11.0 | 0.00 | 0.00 | 0.00 | 27 | 1015.2 |
| 20260903232656 | 92 | 277 | 5.0 | 11.0 | 0.00 | 0.00 | 0.00 | 28 | 1015.2 |
| 20260903231651 | 92 | 247 | 8.0 | 12.0 | 0.00 | 0.00 | 0.00 | 29 | 1015.2 |
| 20260903230649 | 92 | 241 | 9.0 | 15.0 | 0.00 | 0.00 | 0.00 | 29 | 1015.2 |
| 20260903225658 | 93 | 247 | 11.0 | 16.0 | 0.00 | 0.00 | 0.00 | 28 | 1015.1 |
| 20260903224648 | 94 | 228 | 6.0 | 12.0 | 0.00 | 0.00 | 0.00 | 25 | 1015.1 |
| 20260903223703 | 94 | 227 | 9.0 | 12.0 | 0.00 | 0.00 | 0.00 | 25 | 1015.2 |
| 20260903220650 | 95 | 319 | 2.0 | 11.0 | 0.00 | 0.00 | 0.00 | 25 | 1015.3 |
| 20260903214644 | 93 | 281 | 6.0 | 11.0 | 0.00 | 0.00 | 0.00 | 26 | 1015.5 |
| 20260903213702 | 95 | 302 | 2.0 | 7.0 | 0.00 | 0.00 | 0.00 | 26 | 1015.5 |
| 20260903212700 | 95 | 234 | 6.0 | 13.0 | 0.00 | 0.00 | 0.00 | 25 | 1015.9 |
| 20260903205645 | 94 | 271 | 4.0 | 10.0 | 0.00 | 0.00 | 0.00 | 25 | 1016.2 |
| 20260903204643 | 94 | 229 | 8.0 | 16.0 | 0.00 | 0.00 | 0.00 | 25 | 1016.5 |
| 20260903202700 | 94 | 255 | 4.0 | 9.0 | 0.00 | 0.00 | 0.00 | 25 | 1016.7 |
| 20260903201656 | 94 | 227 | 2.0 | 5.0 | 0.00 | 0.00 | 0.00 | 24 | 1016.7 |
| 20260903195648 | 95 | 289 | 1.0 | 10.0 | 0.00 | 0.00 | 0.00 | 24 | 1017.0 |
| 20260903194700 | 94 | 211 | 5.0 | 10.0 | 0.00 | 0.00 | 0.00 | 24 | 1017.3 |
| 20260903193648 | 93 | 252 | 4.0 | 9.0 | 0.00 | 0.00 | 0.00 | 25 | 1017.3 |
| 20260903192645 | 92 | 258 | 3.0 | 8.0 | 0.00 | 0.00 | 0.00 | 26 | 1017.6 |
| 20260903191642 | 93 | 252 | 6.0 | 12.0 | 0.00 | 0.00 | 0.00 | 26 | 1017.6 |
| 20260903190657 | 93 | 225 | 5.0 | 11.0 | 0.00 | 0.00 | 0.00 | 27 | 1017.8 |
| 20260903185643 | 94 | 271 | 4.0 | 13.0 | 0.00 | 0.00 | 0.00 | 27 | 1017.9 |
| 20260903184659 | 94 | 251 | 5.0 | 11.0 | 0.00 | 0.00 | 0.00 | 27 | 1018.3 |
| 20260903183653 | 93 | 238 | 6.0 | 9.0 | 0.00 | 0.00 | 0.00 | 28 | 1018.4 |
| 20260903182709 | 92 | 193 | 4.0 | 9.0 | 0.00 | 0.00 | 0.00 | 28 | 1018.4 |
| 20260903181638 | 91 | 134 | 3.0 | 12.0 | 0.00 | 0.00 | 0.00 | 29 | 1018.8 |
| 20260903180650 | 91 | 242 | 2.0 | 5.0 | 0.00 | 0.00 | 0.00 | 29 | 1018.8 |
| 20260903174638 | 90 | 211 | 1.0 | 6.0 | 0.00 | 0.00 | 0.00 | 30 | 1019.3 |
| 20260903173648 | 89 | 254 | 0.0 | 4.0 | 0.00 | 0.00 | 0.00 | 31 | 1019.4 |
| 20260903172640 | 88 | 190 | 1.0 | 5.0 | 0.00 | 0.00 | 0.00 | 33 | 1019.4 |
| 20260903171646 | 86 | 229 | 1.0 | 4.0 | 0.00 | 0.00 | 0.00 | 36 | 1019.4 |
| 20260903170637 | 86 | 283 | 3.0 | 4.0 | 0.00 | 0.00 | 0.00 | 37 | 1019.4 |
| 20260903165651 | 85 | 275 | 1.0 | 5.0 | 0.00 | 0.00 | 0.00 | 39 | 1019.5 |
| 20260903164639 | 84 | 215 | 2.0 | 6.0 | 0.00 | 0.00 | 0.00 | 41 | 1019.5 |
| 20260903163649 | 83 | 224 | 3.0 | 7.0 | 0.00 | 0.00 | 0.00 | 42 | 1019.6 |
| 20260903162650 | 83 | 238 | 0.0 | 5.0 | 0.00 | 0.00 | 0.00 | 42 | 1019.6 |
| 20260903161642 | 83 | 236 | 4.0 | 7.0 | 0.00 | 0.00 | 0.00 | 43 | 1019.5 |
| 20260903160636 | 83 | 243 | 3.0 | 8.0 | 0.00 | 0.00 | 0.00 | 44 | 1019.5 |
| 20260903155654 | 82 | 184 | 3.0 | 7.0 | 0.00 | 0.00 | 0.00 | 45 | 1019.4 |
| 20260903154647 | 82 | 262 | 6.0 | 8.0 | 0.00 | 0.00 | 0.00 | 46 | 1019.5 |
| 20260903153654 | 82 | 186 | 5.0 | 9.0 | 0.00 | 0.00 | 0.00 | 46 | 1019.6 |
| 20260903152645 | 82 | 269 | 6.0 | 11.0 | 0.00 | 0.00 | 0.00 | 46 | 1019.7 |
| 20260903150654 | 80 | 229 | 4.0 | 8.0 | 0.00 | 0.00 | 0.00 | 48 | 1019.7 |
| 20260903145646 | 79 | 194 | 4.0 | 9.0 | 0.00 | 0.00 | 0.00 | 49 | 1019.7 |
| 20260903143638 | 77 | 184 | 4.0 | 8.0 | 0.00 | 0.00 | 0.00 | 53 | 1019.7 |
| 20260903142637 | 76 | 221 | 3.0 | 8.0 | 0.00 | 0.00 | 0.00 | 54 | 1019.7 |
| 20260903141648 | 76 | 186 | 3.0 | 6.0 | 0.00 | 0.00 | 0.00 | 53 | 1019.7 |
| 20260903140639 | 76 | 174 | 5.0 | 11.0 | 0.00 | 0.00 | 0.00 | 53 | 1019.7 |
| 20260903134634 | 75 | 198 | 4.0 | 8.0 | 0.00 | 0.00 | 0.00 | 55 | 1019.5 |
| 20260903133646 | 75 | 220 | 4.0 | 9.0 | 0.00 | 0.00 | 0.00 | 56 | 1019.4 |
| 20260903132639 | 75 | 171 | 4.0 | 7.0 | 0.00 | 0.00 | 0.00 | 56 | 1019.4 |
| 20260903130632 | 74 | 174 | 3.0 | 9.0 | 0.00 | 0.00 | 0.00 | 57 | 1019.2 |
| 20260903124640 | 74 | 138 | 5.0 | 10.0 | 0.00 | 0.00 | 0.00 | 57 | 1019.1 |
| 20260903123635 | 74 | 197 | 4.0 | 9.0 | 0.00 | 0.00 | 0.00 | 57 | 1019.1 |